Location: Banios
(43.0451°N, 0.2335°E)
Time: 12:21:39
(UTC+00:00)

A-11 Canister half - Pass Details

Date: 08 May 2021
Orbit: 1513 x 1686 km, 47.2° (Epoch: 14 June)

Event Time Altitude Azimuth Distance (km) Brightness Sun altitude
Rises 23:35:14 0° 293° (WNW) 4,714 11.9 -29.4°
Reaches altitude 10° 23:38:53 10° 281° (W) 3,751 11.2 -29.5°
Enters shadow 23:45:14 26° 239° (WSW) 2,763 10.0 -29.5°
Maximum altitude 23:46:13 26° 230° (SW) 2,747 - -29.6°
Drops below altitude 10° 23:53:45 10° 179° (S) 3,846 - -29.6°
Sets 23:57:36 0° 167° (SSE) 4,856 - -29.6°
